Flag for Germany Weather past 2 weeks in Kaufbeuren, Bavaria, Germany

Now
45 °F

Quite cool.


Feels Like: 45 °F
Forecast: 30 / 54 °F
Wind: 1 mph from North

Location: Altenstadt Airport

Current Time: Oct 26, 2014 at 3:08:23 AM

Latest Report: Oct 26, 2014 at 2:20 AM


Visibility: N/A

Pressure: 30.27 "Hg

Humidity: 93%

Dew point: 43 °F

Location of KaufbeurenLocation

Historic Weather in Kaufbeuren — Graph

°F

Kaufbeuren temperature yesterday

Maximum temperature yesterday: 50 °F (at 1:20 PM)
Minimum temperature yesterday: 30 °F (at 4:20 AM)
Average temperature yesterday: 40 °F

Past Weeks' High & Low Weather Summary

 TemperatureHumidityPressure
High72 °F (Oct 19, 2:20 PM)100% (Oct 11, 2:20 AM)30.27 "Hg (Oct 11, 2:20 AM)
Low30 °F (Oct 25, 4:20 AM)44% (Oct 19, 3:20 PM)29.68 "Hg (Oct 21, 8:20 PM)
Average50 °F88%30.03 "Hg
* Reported Oct 11 2:20 AM — Oct 26 2:20 AM, Kaufbeuren, Weather by CustomWeather, © 2014

Note: Actual official high and low records may vary slightly from our data, if they occured in-between our weather recording intervals... More about our weather records

Advertising

Kaufbeuren weather history for previous 24 hours

 ConditionsComfort  
Time TempWeatherWind HumidityBarometerVisibility
2:20 AM
Oct 26
45 °FQuite cool.1 mph100%30.27 "HgN/A
1:20 AM45 °FQuite cool.2 mph100%30.24 "HgN/A
12:20 AM45 °FQuite cool.2 mph100%30.24 "HgN/A
11:20 PM
Oct 25
45 °FQuite cool.3 mph100%30.24 "HgN/A
10:20 PM45 °FQuite cool.2 mph100%30.24 "HgN/A
9:20 PM45 °FQuite cool.3 mph100%30.21 "HgN/A
8:20 PM45 °FQuite cool.2 mph100%30.21 "HgN/A
7:20 PM45 °FQuite cool.2 mph100%30.21 "HgN/A
6:20 PM46 °FCool.2 mph93%30.18 "HgN/A
5:20 PM46 °FCool.3 mph100%30.18 "HgN/A
4:20 PM48 °FCool.5 mph87%30.15 "HgN/A
3:20 PM48 °FCool.1 mph87%30.15 "HgN/A
2:20 PM50 °FCool.5 mph76%30.15 "HgN/A
1:20 PM50 °FCool.2 mph76%30.15 "HgN/A
12:20 PM48 °FCool.2 mph76%30.15 "HgN/A
11:20 AM43 °FQuite cool.2 mph93%30.15 "HgN/A
10:20 AM39 °FChilly.1 mph93%30.12 "HgN/A
9:20 AM34 °FChilly.3 mph100%30.12 "HgN/A
8:20 AM34 °FChilly.2 mph100%30.12 "HgN/A
7:20 AM32 °FChilly.5 mph100%30.09 "HgN/A
6:20 AM30 °FChilly.3 mph100%30.09 "HgN/A
5:20 AM32 °FChilly.2 mph100%30.09 "HgN/A
4:20 AM30 °FChilly.5 mph100%30.09 "HgN/A
3:20 AM32 °FChilly.2 mph100%30.09 "HgN/A
Weather by CustomWeather, © 2014

See weather overviewHow to use our weather pages